Printer-friendly version

IAU Minor Planet Center

Minor Planet Center

MPEC 2005-L24 : COMET C/2005 G1 (LINEAR)

The following Minor Planet Electronic Circular may be linked-to from your own Web pages, but must not otherwise be redistributed electronically.


Read MPEC 2005-L23 Read MPEC 2005-L25


M.P.E.C. 2005-L24                                Issued 2005 June 6, 19:11 UT

     The Minor Planet Electronic Circulars contain information on unusual
         minor planets and routine data on comets.  They are published
   on behalf of Commission 20 of the International Astronomical Union by the
          Minor Planet Center, Smithsonian Astrophysical Observatory,
                          Cambridge, MA 02138, U.S.A.

                  Supported in part by the Brinson Foundation
             Prepared using the Tamkin Foundation Computer Network

                              MPC@CFA.HARVARD.EDU
          URL http://cfa-www.harvard.edu/iau/mpc.html  ISSN 1523-6714

                           COMET C/2005 G1 (LINEAR)

Observations:
    CK05G010  C2005 05 28.97663 17 02 08.30 +58 45 59.0                 EL024048
    CK05G010  C2005 05 28.97808 17 02 08.19 +58 46 00.0                 EL024048
    CK05G010  C2005 05 28.98097 17 02 07.72 +58 46 03.2                 EL024048
    CK05G010  C2005 05 28.98242 17 02 07.64 +58 46 04.4                 EL024048
    CK05G010  C2005 05 28.98387 17 02 07.54 +58 46 05.1                 EL024048
    CK05G010  C2005 06 02.35157 16 53 07.39 +59 14 40.5          18.2 T EL024699
    CK05G010  C2005 06 02.37284 16 53 04.78 +59 14 46.0                 EL024699
    CK05G010  C2005 06 02.39413 16 53 02.06 +59 14 54.9                 EL024699
    CK05G010  C2005 06 02.41542 16 52 59.25 +59 15 03.0                 EL024699
    CK05G010  C2005 06 04.69010 16 48 11.57 +59 27 32.1          18.4 T EL024360
    CK05G010  C2005 06 04.69543 16 48 10.84 +59 27 33.7                 EL024360
    CK05G010  C2005 06 04.70263 16 48 09.96 +59 27 35.6                 EL024360

Observer details:
048 Hradec Kralove.  Observer M. Lehky.  0.40-m f/5 reflector + CCD.
360 Kuma Kogen.  Observer A. Nakamura.  0.60-m f/5.8 Ritchey-Chretien + CCD.
699 Lowell Observatory-LONEOS.  Observer B. A. Skiff.  0.59-m LONEOS Schmidt
    + CCD.

Orbital elements:
    C/2005 G1 (LINEAR)
T 2006 Feb. 27.0912 TT                                  MPC
q   4.961485             (2000.0)            P               Q
                   Peri.  113.7884      -0.4505275      -0.3410695
                   Node   299.5918      -0.1544979      +0.9399891
e   1.0            Incl.  108.4139      +0.8792925      -0.0095928
From 158 observations 2005 Mar. 22-June 4.

Brian G. Marsden             (C) Copyright 2005 MPC           M.P.E.C. 2005-L24

Read MPEC 2005-L23 Read MPEC 2005-L25


Our Web policy. Index to the CBAT/MPC/ICQ pages.


Valid HTML 4.01!